Home   Weather   Merida   Past weeks
Flag for Mexico

Past Weather in Merida, Yucatán, Mexico — Yesterday and Last 2 Weeks

Now
90 °F

Partly sunny.


Feels Like: 95 °F
Forecast: 99 / 76 °F
Wind: 22 mph from East

Location: Aerop. Internacional Merida - Yuc

Current Time: May 20, 2019 at 12:18:14 pm

Latest Report: May 20, 2019 at 10:46 am


Visibility: 7 mi

Pressure: 29.93 "Hg

Humidity: 52%

Dew Point: 70 °F

Location of MeridaLocation

Past Weather in Merida — Graph

°F

Merida Temperature Yesterday

Maximum temperature yesterday: 100 °F (at 3:42 pm)
Minimum temperature yesterday: 77 °F (at 4:43 am)
Average temperature yesterday: 88 °F

High & Low Weather Summary for the Past Weeks

 TemperatureHumidityPressure
High104 °F (May 13, 3:44 pm)100% (May 5, 7:31 pm)29.98 "Hg (May 5, 7:31 pm)
Low72 °F (May 6, 5:47 am)27% (May 14, 4:46 pm)29.67 "Hg (May 9, 4:54 pm)
Average86 °F64%29.84 "Hg
* Reported May 5 10:45 am — May 20 10:46 am, Merida. Weather by CustomWeather, © 2019

Note: Actual official high and low records may vary slightly from our data, if they occured in-between our weather recording intervals... More about our weather records

Advertising

Merida Weather History for the Previous 24 Hours

Scroll right to see more
 ConditionsComfort  
Time TempWeatherWind HumidityBarometerVisibility
10:46 am
Mon, May 20
90 °FPartly sunny.22 mph52%29.93 "Hg7 mi
9:45 am86 °FPartly sunny.21 mph62%29.94 "Hg7 mi
8:47 am82 °FPartly sunny.14 mph74%29.93 "Hg7 mi
7:45 am79 °FPassing clouds.16 mph84%29.92 "Hg7 mi
6:48 am77 °FSunny.7 mph89%29.93 "Hg7 mi
5:49 am77 °FClear.8 mph89%29.89 "Hg6 mi
4:49 am77 °FClear.7 mph89%29.88 "Hg7 mi
3:51 am77 °FClear.13 mph83%29.89 "Hg7 mi
2:46 am79 °FClear.12 mph79%29.87 "Hg7 mi
1:46 am81 °FClear.17 mph74%29.88 "Hg7 mi
12:47 am82 °FClear.18 mph70%29.90 "Hg7 mi
11:47 pm
Sun, May 19
84 °FClear.15 mph62%29.89 "Hg7 mi
10:48 pm86 °FClear.20 mph59%29.88 "Hg7 mi
9:46 pm88 °FClear.15 mph52%29.81 "Hg7 mi
8:40 pm91 °FPassing clouds.16 mph46%29.81 "Hg7 mi
7:49 pm91 °FPassing clouds.7 mph52%29.77 "Hg7 mi
6:49 pm93 °FScattered clouds.9 mph49%29.75 "Hg7 mi
5:41 pm97 °FScattered clouds.9 mph42%29.74 "Hg7 mi
4:48 pm99 °FPartly sunny.12 mph35%29.74 "Hg7 mi
3:42 pm100 °FPartly sunny.14 mph35%29.80 "Hg7 mi
2:47 pm99 °FPartly sunny.14 mph37%29.78 "Hg7 mi
1:46 pm97 °FScattered clouds.14 mph42%29.80 "Hg7 mi
12:47 pm97 °FScattered clouds.15 mph42%29.84 "Hg7 mi
Weather by CustomWeather, © 2019

See weather overview